Wellsville, NY

9:34 AM EDT on March 29, 2017 (GMT -0400)
Wellsville Municipal-Tarantine

Weather History for KELZ - August, 2013

Change the Weather History Date:

Thursday, August 8, 2013

  Actual Average (KDSV) Record (KDSV)
Temperature  
Mean Temperature 70 °F -  
Max Temperature 80 °F 81 °F 99 °F (2001)
Min Temperature 62 °F 58 °F 47 °F (1975)
Cooling Degree Days 6    
Growing Degree Days 20 (Base 50)    
Moisture  
Dew Point 64 °F    
Average Humidity 86    
Maximum Humidity 100    
Minimum Humidity 65    
Precipitation  
Precipitation 0.39 in - - ()
Sea Level Pressure  
Sea Level Pressure 30.02 in    
Wind  
Wind Speed 5 mph (SSW)    
Max Wind Speed 12 mph    
Max Gust Speed 17 mph    
Visibility 7 miles    
Events Fog , Rain , Thunderstorm    
Averages and records for this station are not official NWS values.
T = Trace of Precipitation, MM = Missing Value Source: NWS Daily Summary

Daily Weather History Graph

Daily Weather History Graph

Search for Another Location

Airport or City:

Trip Planner

Search our weather history database for the weather conditions in past years. The results will help you decide how hot, cold, wet, or windy it might be!

Date:

Astronomy

Aug. 08, 2013 Rise Set
Actual Time 6:12 AM EDT 8:21 PM EDT
Civil Twilight 5:41 AM EDT 8:52 PM EDT
Nautical Twilight 5:03 AM EDT 9:30 PM EDT
Astronomical Twilight 4:21 AM EDT 10:11 PM EDT
Moon 8:00 AM EDT (8/8) 8:55 PM EDT (8/8)
Length of Visible Light 15h 10m
Length of Day
14h 09m
Waxing Crescent, 3% of the Moon is Illuminated
Aug 8
Waxing Crescent
Aug 14
First Quarter
Aug 20
Full
Aug 28
Last Quarter
Sep 5
New

Hourly Weather History & Observations

Time (EDT) Temp. Dew Point Humidity Pressure Visibility Wind Dir Wind Speed Gust Speed Precip Events Conditions
12:56 AM 63.0 °F 59.0 °F 87% 30.01 in 10.0 mi South 3.5 mph - N/A   Clear
1:56 AM 64.0 °F 60.1 °F 87% 30.00 in 10.0 mi SSW 5.8 mph - N/A   Clear
2:56 AM 64.0 °F 60.1 °F 87% 29.99 in 10.0 mi SW 11.5 mph - N/A   Clear
3:56 AM 64.9 °F 60.1 °F 84% 29.98 in 10.0 mi SSW 5.8 mph - N/A   Clear
4:30 AM 62.6 °F 60.8 °F 94% 30.02 in 10.0 mi South 5.8 mph - N/A   Mostly Cloudy
4:47 AM 64.4 °F 60.8 °F 88% 30.03 in 10.0 mi Calm Calm - N/A Thunderstorm Overcast
4:56 AM 64.9 °F 61.0 °F 87% 30.00 in 10.0 mi SSE 3.5 mph - N/A Thunderstorm Overcast
5:54 AM 64.4 °F 62.6 °F 94% 30.06 in 2.5 mi NW 11.5 mph 17.3 mph 0.15 in Rain , Thunderstorm Heavy Thunderstorms and Rain
5:56 AM 64.0 °F 62.1 °F 93% 30.04 in 1.8 mi NW 11.5 mph 17.3 mph 0.20 in Rain , Thunderstorm Heavy Thunderstorms and Rain
6:08 AM 62.6 °F 62.6 °F 100% 30.06 in 2.0 mi NNW 5.8 mph - 0.15 in Rain , Thunderstorm Thunderstorms and Rain
6:13 AM 62.6 °F 62.6 °F 100% 30.05 in 4.0 mi Calm Calm - 0.16 in Rain , Thunderstorm Thunderstorms and Rain
6:15 AM 62.6 °F 62.6 °F 100% 30.04 in 2.5 mi SSE 5.8 mph - 0.16 in Rain , Thunderstorm Thunderstorms and Rain
6:18 AM 62.6 °F 62.6 °F 100% 30.05 in 1.0 mi Calm Calm - 0.17 in Rain , Thunderstorm Thunderstorms and Rain
6:21 AM 62.6 °F 62.6 °F 100% 30.04 in 0.8 mi Calm Calm - 0.18 in Rain , Thunderstorm Thunderstorms and Rain
6:31 AM 62.6 °F 60.8 °F 94% 30.04 in 0.2 mi East 3.5 mph - 0.19 in Fog , Rain , Thunderstorm Light Rain
6:35 AM 62.6 °F 60.8 °F 94% 30.04 in 0.2 mi SE 5.8 mph - 0.19 in Fog , Rain , Thunderstorm Light Rain
6:44 AM 62.6 °F 62.6 °F 100% 30.04 in 0.2 mi SE 5.8 mph - 0.19 in Fog , Rain Light Rain
6:56 AM 63.0 °F 62.1 °F 97% 30.02 in 0.2 mi SSE 5.8 mph - 0.19 in Fog Fog
7:12 AM 62.6 °F 62.6 °F 100% 30.04 in 1.0 mi SSE 5.8 mph - N/A   Mist
7:15 AM 62.6 °F 62.6 °F 100% 30.04 in 3.0 mi SSE 4.6 mph - N/A   Mostly Cloudy
7:31 AM 62.6 °F 62.6 °F 100% 30.05 in 10.0 mi South 8.1 mph - N/A   Mostly Cloudy
7:56 AM 64.9 °F 64.0 °F 97% 30.02 in 10.0 mi SSW 6.9 mph - N/A   Mostly Cloudy
8:56 AM 68.0 °F 64.9 °F 90% 30.01 in 10.0 mi ESE 3.5 mph - N/A   Overcast
9:22 AM 71.6 °F 66.2 °F 83% 30.05 in 10.0 mi West 3.5 mph - N/A   Scattered Clouds
9:56 AM 71.1 °F 64.9 °F 81% 30.03 in 10.0 mi South 5.8 mph - N/A   Partly Cloudy
10:56 AM 73.9 °F 66.9 °F 79% 30.01 in 10.0 mi South 5.8 mph - N/A   Scattered Clouds
11:04 AM 75.2 °F 68.0 °F 78% 30.05 in 10.0 mi South 6.9 mph - N/A   Mostly Cloudy
11:37 AM 75.2 °F 68.0 °F 78% 30.04 in 10.0 mi WSW 8.1 mph - N/A   Scattered Clouds
11:56 AM 73.9 °F 66.9 °F 79% 30.02 in 10.0 mi WSW 8.1 mph - N/A   Mostly Cloudy
12:56 PM 75.9 °F 68.0 °F 76% 30.03 in 10.0 mi Variable 6.9 mph - N/A   Scattered Clouds
1:56 PM 78.1 °F 68.0 °F 71% 30.01 in 10.0 mi SSW 6.9 mph - N/A   Scattered Clouds
2:56 PM 77.0 °F 66.9 °F 71% 30.01 in 10.0 mi SSW 11.5 mph - N/A   Mostly Cloudy
3:56 PM 77.0 °F 66.9 °F 71% 29.99 in 10.0 mi SSW 6.9 mph - N/A   Clear
4:56 PM 79.0 °F 68.0 °F 69% 29.97 in 10.0 mi SW 9.2 mph - N/A   Partly Cloudy
5:56 PM 78.1 °F 66.9 °F 68% 29.97 in 10.0 mi SW 8.1 mph - N/A   Clear
6:36 PM 78.8 °F 66.2 °F 65% 30.00 in 10.0 mi SW 9.2 mph - N/A Thunderstorm Clear
6:51 PM 78.8 °F 66.2 °F 65% 30.01 in 10.0 mi SSW 6.9 mph - N/A   Clear
6:56 PM 77.0 °F 66.9 °F 71% 29.98 in 10.0 mi SW 4.6 mph - N/A   Clear
7:22 PM 73.4 °F 66.2 °F 78% 30.02 in 10.0 mi Calm Calm - N/A   Mostly Cloudy
7:56 PM 73.0 °F 64.9 °F 76% 29.98 in 10.0 mi North 5.8 mph - N/A Thunderstorm Overcast
8:18 PM 71.6 °F 66.2 °F 83% 30.02 in 10.0 mi WSW 6.9 mph - 0.00 in Rain Light Rain
8:56 PM 72.0 °F 64.9 °F 78% 29.99 in 10.0 mi Variable 3.5 mph - 0.00 in   Overcast
9:36 PM 69.8 °F 64.4 °F 83% 30.03 in 10.0 mi Calm Calm - N/A   Mostly Cloudy
9:56 PM 68.0 °F 64.9 °F 90% 29.99 in 10.0 mi Calm Calm - 0.00 in   Mostly Cloudy
10:11 PM 68.0 °F 64.4 °F 88% 30.03 in 10.0 mi WSW 4.6 mph - N/A   Mostly Cloudy
10:41 PM 69.8 °F 66.2 °F 88% 30.03 in 9.0 mi Calm Calm - N/A   Mostly Cloudy
10:56 PM 68.0 °F 66.0 °F 93% 29.99 in 8.0 mi SE 3.5 mph - N/A   Overcast
11:20 PM 68.0 °F 66.2 °F 94% 30.02 in 4.0 mi Calm Calm - N/A   Overcast
11:34 PM 68.0 °F 66.2 °F 94% 30.02 in 6.0 mi Calm Calm - N/A   Overcast
11:56 PM 69.1 °F 66.0 °F 90% 29.98 in 6.0 mi Calm Calm - N/A   Mostly Cloudy